Hourly Data Report for October 25, 2014

All times are specified in Local Standard Time (LST). Add 1 hour to adjust for Daylight Saving Time where and when it is observed.

PANGNIRTUNG
NUNAVUT

66°08'36.300" N
65°42'40.500" W
22.60 m
2403049
71826
WXP

Download Data

Hourly Data (October 2014)
Hourly Data Report for October 25, 2014
Temp Definition
°C
Dew Point Temp Definition
°C
Rel Hum Definition
%
Wind Dir Definition
10's deg

Wind Spd Definition
km/h
Visibility Definition
km
Stn Press Definition
kPa
Hmdx Definition


Wind Chill Definition


Weather Definition


TIME
00:00 -13.5 -17.9 69 31 23   101.46   -23 LegendNANA
01:00 -13.8 -18.1 70 35 8   101.48   -19 LegendNANA
02:00 -14.2 -18.2 72 22 7   101.45   -19 LegendNANA
03:00 -15.0 -18.7 73 18 5   101.41   -19 LegendNANA
04:00 -14.9 -18.5 74 16 3   101.42   -17 LegendNANA
05:00 -14.3 -18.0 73 17 6   101.43   -18 LegendNANA
06:00 -14.9 -18.8 72 18 5   101.45   -18 LegendNANA
07:00 -14.4 -18.7 70 11 4   101.43   -17 LegendNANA
08:00 -13.9 -17.4 75 13 10   101.42   -20 LegendNANA
09:00 -14.3 -19.1 67 12 12   101.41   -21 LegendNANA
10:00 -14.0 -19.1 66 12 17   101.40   -22 LegendNANA
11:00 -13.3 -18.4 65 12 8   101.39   -18 LegendNANA
12:00 -13.3 -19.2 61 12 9   101.39   -19 LegendNANA
13:00 -12.5 -18.5 61 12 7   101.38   -17 LegendNANA
14:00 -12.9 -18.5 63 13 6   101.41   -17 LegendNANA
15:00 -13.1 -18.7 63 23 4   101.44   -16 LegendNANA
16:00 -12.8 -18.1 64 14 2   101.46   -14 LegendNANA
17:00 -12.6 -17.7 65 10 12   101.44   -19 LegendNANA
18:00 -11.1 -15.8 68 11 13   101.45   -18 LegendNANA
19:00 -10.8 -14.8 72 23 7   101.49   -15 LegendNANA
20:00 -11.5 -16.1 69 23 3   101.49   -13 LegendNANA
21:00 -10.9 -16.8 62 13 3   101.46   -13 LegendNANA
22:00 -9.8 -16.8 57 10 8   101.45   -14 LegendNANA
23:00 -9.5 -16.6 56 12 7   101.44   -13 LegendNANA

Notes on Data Quality.

Legend

  • E = Estimated
  • M = Missing
  • NA = Not Available
  • ‡ = Partner data that is not subject to review by the National Climate Archives
Date modified: